Weather History for Fryeburg, ME

Change the Weather History Date:

Wednesday, March 12, 2014

  Actual Average Record
Temperature  
Mean Temperature 30 °F -  
Max Temperature 33 °F 35 °F 66 °F (2012)
Min Temperature 26 °F 15 °F 3 °F (1998)
Degree Days  
Heating Degree Days 36    
Moisture  
Dew Point 29 °F    
Average Humidity 90    
Maximum Humidity 96    
Minimum Humidity 72    
Precipitation  
Precipitation 1.50 in - - ()
Sea Level Pressure  
Sea Level Pressure 29.46 in    
Wind  
Wind Speed 4 mph (North)    
Max Wind Speed 16 mph    
Max Gust Speed 28 mph    
Visibility 3 miles    
Events Fog , Rain , Snow    
Averages and records for this station are not official NWS values.
T = Trace of Precipitation, MM = Missing Value Source: NWS Daily Summary

Daily Weather History Graph

Daily Weather History Graph

Search for Another Location

Airport:

Trip Planner

Search our weather history database for the weather conditions in past years. The results will help you decide how hot, cold, wet, or windy it might be!

Date:

Astronomy

Mar. 12, 2014 Rise Set
Actual Time 7:01 AM EDT 6:46 PM EDT
Civil Twilight 6:32 AM EDT 7:14 PM EDT
Nautical Twilight 5:59 AM EDT 7:48 PM EDT
Astronomical Twilight 5:25 AM EDT 8:22 PM EDT
Moon 3:08 PM EDT (3/12) 4:37 AM EDT (3/12)
Length of Visible Light 12h 42m
Length of Day
11h 44m
Waxing Gibbous, 85% of the Moon is Illuminated
Mar 12
Waxing Gibbous
Mar 16
Full
Mar 23
Last Quarter
Mar 30
New
Apr 7
First Quarter

Hourly Weather History & Observations

Time (EDT) Temp. Windchill Dew Point Humidity Pressure Visibility Wind Dir Wind Speed Gust Speed Precip Events Conditions
12:54 AM 33.1 °F - 25.0 °F 72% 29.71 in 10.0 mi Calm Calm - N/A   Overcast
1:54 AM 30.0 °F - 25.0 °F 82% 29.71 in 10.0 mi Calm Calm - N/A   Partly Cloudy
2:54 AM 26.1 °F 21.9 °F 23.0 °F 88% 29.71 in 10.0 mi West 3.5 mph - N/A   Clear
3:54 AM 28.0 °F - 24.1 °F 85% 29.72 in 10.0 mi Calm Calm - N/A   Overcast
4:54 AM 28.0 °F - 24.1 °F 85% 29.70 in 10.0 mi Calm Calm - N/A   Overcast
5:54 AM 30.0 °F - 25.0 °F 82% 29.72 in 10.0 mi Calm Calm - N/A   Overcast
6:54 AM 30.0 °F - 26.1 °F 85% 29.72 in 10.0 mi Calm Calm - N/A   Overcast
7:54 AM 30.9 °F - 26.1 °F 82% 29.70 in 10.0 mi Calm Calm - N/A   Overcast
8:49 AM 32.0 °F - 26.6 °F 80% 29.70 in 8.0 mi Calm Calm - 0.00 in Snow Light Snow
8:54 AM 32.0 °F - 27.0 °F 82% 29.72 in 4.0 mi Calm Calm - 0.00 in Snow Light Snow
9:03 AM 32.0 °F - 27.0 °F 82% 29.69 in 2.0 mi Calm Calm - 0.00 in Snow Light Snow
9:11 AM 32.0 °F - 27.0 °F 82% 29.70 in 1.8 mi Calm Calm - 0.00 in Snow Light Snow
9:22 AM 32.0 °F 28.7 °F 28.0 °F 85% 29.69 in 1.0 mi NNW 3.5 mph - 0.00 in Snow Light Snow
9:54 AM 32.0 °F 28.7 °F 28.9 °F 88% 29.70 in 1.2 mi NNE 3.5 mph - 0.01 in Snow Light Snow
10:08 AM 32.0 °F - 28.9 °F 88% 29.68 in 0.8 mi Calm Calm - 0.01 in Snow Light Snow
10:11 AM 32.0 °F - 30.0 °F 92% 29.68 in 1.0 mi Calm Calm - 0.01 in Snow Light Snow
10:23 AM 32.0 °F 27.5 °F 30.0 °F 92% 29.67 in 1.5 mi North 4.6 mph - 0.01 in Snow Light Snow
10:44 AM 32.0 °F - 30.0 °F 92% 29.67 in 1.2 mi Calm Calm - 0.02 in Snow Light Snow
10:47 AM 32.0 °F - 30.0 °F 92% 29.67 in 1.5 mi Calm Calm - 0.03 in Snow Light Snow
10:54 AM 33.1 °F - 30.0 °F 89% 29.69 in 2.0 mi Calm Calm - 0.03 in Snow Light Snow
11:03 AM 33.1 °F 28.7 °F 30.0 °F 89% 29.66 in 1.2 mi NNE 4.6 mph - 0.01 in Snow Light Snow
11:21 AM 33.1 °F 30.0 °F 30.0 °F 89% 29.65 in 0.5 mi North 3.5 mph - 0.03 in Fog , Snow Snow
11:54 AM 33.1 °F - 30.9 °F 92% 29.65 in 0.5 mi Calm Calm - 0.07 in Fog , Snow Snow
12:02 PM 33.1 °F 30.0 °F 30.9 °F 92% 29.62 in 0.5 mi NE 3.5 mph - 0.00 in Fog , Snow Snow
12:16 PM 33.1 °F 30.0 °F 30.9 °F 92% 29.61 in 0.8 mi NNE 3.5 mph - 0.02 in Snow Light Snow
12:54 PM 33.1 °F 28.7 °F 30.9 °F 92% 29.63 in 0.5 mi NNW 4.6 mph - 0.07 in Fog , Snow Snow
1:26 PM 33.1 °F 27.7 °F 32.0 °F 96% 29.58 in 0.5 mi North 5.8 mph - 0.05 in Fog , Snow Snow
1:38 PM 33.1 °F 28.7 °F 30.9 °F 92% 29.57 in 0.2 mi North 4.6 mph - 0.08 in Fog , Snow Heavy Snow
1:54 PM 33.1 °F 28.7 °F 32.0 °F 96% 29.58 in 0.2 mi NNE 4.6 mph - 0.13 in Fog , Snow Heavy Snow
2:36 PM 33.1 °F 27.7 °F 32.0 °F 96% 29.50 in 0.2 mi North 5.8 mph - 0.10 in Fog , Snow Heavy Snow
2:54 PM 33.1 °F 27.7 °F 32.0 °F 96% 29.51 in 0.2 mi North 5.8 mph - 0.16 in Fog , Snow Heavy Snow
3:08 PM 33.1 °F 26.9 °F 30.9 °F 92% 29.48 in 0.2 mi North 6.9 mph - 0.04 in Fog , Snow Heavy Snow
3:40 PM 33.1 °F 26.9 °F 30.9 °F 92% 29.45 in 0.5 mi North 6.9 mph - 0.13 in Fog , Snow Snow
3:54 PM 33.1 °F 26.1 °F 30.9 °F 92% 29.46 in 0.2 mi North 8.1 mph - 0.16 in Fog , Snow Heavy Snow
4:01 PM 33.1 °F 25.5 °F 30.9 °F 92% 29.43 in 0.5 mi North 9.2 mph - 0.02 in Fog , Snow Snow
4:15 PM 33.1 °F 25.5 °F 30.9 °F 92% 29.41 in 1.0 mi North 9.2 mph - 0.04 in Snow Light Snow
4:35 PM 33.1 °F 30.0 °F 32.0 °F 96% 29.41 in 2.0 mi North 3.5 mph - 0.09 in Snow Light Snow
4:54 PM 33.1 °F 26.9 °F 30.9 °F 92% 29.40 in 2.0 mi North 6.9 mph - 0.12 in Snow Light Snow
5:06 PM 33.1 °F 27.7 °F 30.9 °F 92% 29.37 in 3.0 mi North 5.8 mph - 0.03 in Snow Light Snow
5:39 PM 33.1 °F 26.1 °F 30.9 °F 92% 29.33 in 2.5 mi North 8.1 mph - 0.09 in Snow Light Snow
5:43 PM 33.1 °F 26.9 °F 30.9 °F 92% 29.33 in 1.8 mi North 6.9 mph - 0.10 in Snow Light Snow
5:54 PM 33.1 °F 26.1 °F 30.9 °F 92% 29.33 in 2.5 mi North 8.1 mph - 0.13 in Rain Heavy Rain
5:58 PM 33.1 °F 27.7 °F 30.9 °F 92% 29.32 in 3.0 mi North 5.8 mph - 0.01 in Rain Rain
6:09 PM 33.1 °F 26.1 °F 30.9 °F 92% 29.32 in 3.0 mi North 8.1 mph - 0.04 in Rain Rain
6:28 PM 33.1 °F 27.7 °F 30.9 °F 92% 29.30 in 2.5 mi North 5.8 mph - 0.09 in Rain Rain
6:35 PM 33.1 °F 26.1 °F 30.9 °F 92% 29.28 in 4.0 mi NNE 8.1 mph - 0.11 in Rain Rain
6:54 PM 33.1 °F 27.7 °F 30.9 °F 92% 29.29 in 5.0 mi Variable 5.8 mph - 0.17 in Rain Rain
7:54 PM 33.1 °F 26.1 °F 30.9 °F 92% 29.24 in 4.0 mi North 8.1 mph - 0.21 in Rain Rain
7:56 PM 33.1 °F 26.1 °F 30.9 °F 92% 29.23 in 4.0 mi North 8.1 mph - 0.00 in Rain Rain
8:54 PM 33.1 °F 24.4 °F 30.9 °F 92% 29.21 in 4.0 mi North 11.5 mph - 0.12 in Rain Rain
9:15 PM 32.0 °F 23.6 °F 30.9 °F 96% 29.20 in 2.0 mi North 10.4 mph - 0.03 in Snow Light Snow
9:25 PM 32.0 °F 23.0 °F 30.9 °F 96% 29.19 in 1.5 mi North 11.5 mph 18.4 mph 0.05 in Snow Light Snow
9:34 PM 32.0 °F 23.6 °F 30.0 °F 92% 29.19 in 1.2 mi North 10.4 mph - 0.06 in Snow Light Snow
9:54 PM 32.0 °F 22.5 °F 30.0 °F 92% 29.20 in 0.8 mi North 12.7 mph 18.4 mph 0.08 in Snow Light Snow
10:02 PM 30.9 °F 21.2 °F 28.9 °F 92% 29.18 in 1.0 mi NNE 12.7 mph - 0.00 in Snow Light Snow
10:46 PM 30.0 °F 21.1 °F 27.0 °F 88% 29.20 in 2.0 mi NNE 10.4 mph - 0.02 in Snow Light Snow
10:54 PM 28.9 °F 19.8 °F 27.0 °F 92% 29.22 in 1.5 mi North 10.4 mph 20.7 mph 0.02 in Snow Light Snow
11:02 PM 28.9 °F 17.3 °F 26.1 °F 89% 29.19 in 1.5 mi NNE 16.1 mph 26.5 mph 0.00 in Snow Light Snow
11:09 PM 28.9 °F 20.4 °F 26.1 °F 89% 29.18 in 2.0 mi North 9.2 mph 26.5 mph 0.01 in Snow Light Snow
11:14 PM 28.0 °F 16.1 °F 25.0 °F 88% 29.18 in 1.5 mi North 16.1 mph 20.7 mph 0.01 in Snow Light Snow
11:16 PM 28.0 °F 17.0 °F 25.0 °F 88% 29.17 in 1.2 mi NNE 13.8 mph 20.7 mph 0.02 in Snow Light Snow
11:23 PM 28.0 °F 18.1 °F 25.0 °F 88% 29.17 in 1.5 mi North 11.5 mph 21.9 mph 0.02 in Snow Light Snow
11:36 PM 27.0 °F 15.6 °F 23.0 °F 85% 29.18 in 2.0 mi North 13.8 mph 25.3 mph 0.02 in Snow Light Snow
11:38 PM 27.0 °F 14.7 °F 23.0 °F 85% 29.18 in 1.8 mi North 16.1 mph 25.3 mph 0.02 in Snow Light Snow
11:54 PM 26.1 °F 13.6 °F 21.9 °F 84% 29.20 in 1.2 mi North 16.1 mph 27.6 mph 0.02 in Snow Light Snow